Location: Unspecified
(0.0000°N, 0.0000°E)
Time: 20:48:15
(UTC+00:00)

ISS - Pass Details

Date: 10 September 2018
Orbit: 411 x 421 km, 51.6° (Epoch: 19 October)

Event Time Altitude Azimuth Distance (km) Brightness Sun altitude
Rises 09:31:32 0° 296° (WNW) 2,344 -0.3 53.3°
Reaches altitude 10° 09:34:11 10° 274° (W) 1,491 -1.2 54.0°
Maximum altitude 09:36:19 16° 234° (SW) 1,190 -1.6 54.5°
Drops below altitude 10° 09:38:29 10° 194° (SSW) 1,508 -1.0 55.1°
Sets 09:41:12 0° 171° (S) 2,385 0.1 55.7°
